Home   Weather   Göppingen   Past weeks

Flag for Germany Past Weather in Göppingen, Baden-Württemberg, Germany — Yesterday and Last 2 Weeks

Now
61 °F

Passing clouds.


Feels Like: 61 °F
Forecast: 36 / 43 °F
Wind: 17 mph from Southwest

Location: Stuttgart-Echterdingen

Current Time: Feb 23, 2017 at 5:07:29 pm

Latest Report: Feb 23, 2017 at 4:50 pm


Visibility: N/A

Pressure: 29.50 "Hg

Humidity: 27%

Dew Point: 27 °F

Location of GöppingenLocation

Past Weather in Göppingen — Graph

°F

Göppingen Temperature Yesterday

Maximum temperature yesterday: 50 °F (at 10:20 am)
Minimum temperature yesterday: 46 °F (at 8:50 pm)
Average temperature yesterday: 48 °F

High & Low Weather Summary for the Past Weeks

 TemperatureHumidityPressure
High64 °F (Feb 23, 2:20 pm)100% (Feb 11, 3:20 am)30.54 "Hg (Feb 11, 3:20 am)
Low23 °F (Feb 11, 5:20 am)27% (Feb 23, 2:50 pm)29.50 "Hg (Feb 23, 3:50 pm)
Average39 °F81%30.20 "Hg
* Reported Feb 8 3:20 pm — Feb 23 3:50 pm, Göppingen, Weather by CustomWeather, © 2017

Note: Actual official high and low records may vary slightly from our data, if they occured in-between our weather recording intervals... More about our weather records

Advertising

Göppingen Weather History for the Previous 24 Hours

Scroll right to see more
 ConditionsComfort  
Time TempWeatherWind HumidityBarometerVisibility
3:50 pm
Thu, Feb 23
63 °FPassing clouds.17 mph27%29.50 "HgN/A
3:20 pm63 °FPassing clouds.20 mph27%29.53 "HgN/A
2:50 pm63 °FPassing clouds.17 mph27%29.53 "HgN/A
2:20 pm64 °FPassing clouds.22 mph28%29.56 "HgN/A
1:50 pm63 °FPassing clouds.17 mph30%29.56 "HgN/A
1:20 pm63 °FPassing clouds.20 mph32%29.59 "HgN/A
12:50 pm61 °FPassing clouds.18 mph34%29.62 "HgN/A
12:20 pm61 °FPassing clouds.18 mph36%29.62 "HgN/A
11:50 am59 °FPassing clouds.15 mph39%29.65 "HgN/A
11:20 am59 °FPassing clouds.14 mph39%29.65 "HgN/A
10:50 am57 °FPassing clouds.14 mph41%29.68 "HgN/A
10:20 am55 °FPassing clouds.10 mph51%29.68 "HgN/A
9:50 am54 °FSunny.5 mph54%29.71 "Hg10 mi
9:20 am48 °FPassing clouds.5 mph76%29.71 "HgN/A
8:50 am46 °FPassing clouds.3 mph82%29.74 "HgN/A
8:20 am43 °FSunny.5 mph87%29.77 "Hg10 mi
7:50 am43 °FSunny.1 mph81%29.77 "Hg10 mi
7:20 am41 °FSunny.6 mph87%29.80 "Hg10 mi
6:50 am43 °FPassing clouds.7 mph81%29.80 "HgN/A
6:20 am43 °FPassing clouds.7 mph81%29.83 "HgN/A
5:50 am45 °FPassing clouds.8 mph76%29.83 "HgN/A
5:20 am46 °FPassing clouds.12 mph76%29.83 "HgN/A
4:50 am46 °FPassing clouds.10 mph76%29.83 "HgN/A
4:20 am46 °FPassing clouds.12 mph76%29.83 "HgN/A
3:50 am46 °FPassing clouds.12 mph76%29.83 "HgN/A
3:20 am46 °FPassing clouds.13 mph76%29.86 "HgN/A
2:50 am46 °FPassing clouds.15 mph76%29.86 "HgN/A
2:20 am46 °FPassing clouds.13 mph76%29.86 "HgN/A
1:50 am46 °FPartly cloudy.14 mph76%29.86 "HgN/A
1:20 am46 °FPartly cloudy.17 mph76%29.89 "HgN/A
12:50 am46 °FPassing clouds.21 mph76%29.89 "HgN/A
12:20 am46 °FPassing clouds.20 mph76%29.89 "HgN/A
11:50 pm
Wed, Feb 22
46 °FPartly cloudy.18 mph82%29.89 "HgN/A
11:20 pm46 °FPassing clouds.17 mph82%29.89 "HgN/A
10:50 pm46 °FPassing clouds.20 mph82%29.89 "HgN/A
10:20 pm46 °FPassing clouds.18 mph82%29.89 "HgN/A
9:50 pm46 °FPassing clouds.17 mph82%29.89 "HgN/A
9:20 pm46 °FPassing clouds.17 mph82%29.89 "HgN/A
8:50 pm46 °FPassing clouds.17 mph82%29.89 "HgN/A
8:20 pm48 °FPassing clouds.14 mph76%29.89 "HgN/A
7:50 pm48 °FPassing clouds.15 mph76%29.89 "HgN/A
7:20 pm48 °FPassing clouds.17 mph76%29.89 "HgN/A
6:50 pm48 °FPassing clouds.15 mph76%29.89 "HgN/A
6:20 pm48 °FPassing clouds.14 mph76%29.89 "HgN/A
5:50 pm48 °FPartly sunny.15 mph76%29.89 "HgN/A
5:20 pm48 °FPartly sunny.16 mph76%29.89 "HgN/A
Weather by CustomWeather, © 2017

See weather overviewHow to use our weather pages